CW5766 Weather Reports


time (UTC)temp
C
wind
direction
speed
KPH
gust
KPH
rain 1hr
cm
rain 24hr
cm
rain mn
cm
humidity
%
barometer
mb
20260507201331 11 210 1.6 9.7 0.18 0.00 2.03 100 998.5
20260507200825 11 216 0.0 6.4 0.15 0.00 2.01 100 998.5
20260507200338 11 215 1.6 6.4 0.81 0.00 2.01 100 998.5
20260507195830 11 213 1.6 6.4 0.81 0.00 2.01 100 998.5
20260507195345 10 213 1.6 11.3 0.79 0.00 1.98 100 998.5
20260507194859 10 212 1.6 11.3 0.79 0.00 1.98 100 998.5
20260507194332 10 223 0.0 6.4 0.76 0.00 1.96 100 998.5
20260507193826 10 223 3.2 9.7 0.76 0.00 1.96 100 998.9
20260507193338 10 206 1.6 9.7 0.74 0.00 1.93 100 998.9
20260507192831 10 224 0.0 6.4 0.71 0.00 1.91 100 998.9
20260507192345 10 224 3.2 11.3 0.71 0.00 1.91 100 998.9
20260507191857 10 213 4.8 11.3 0.69 0.00 1.88 100 998.9
20260507191327 10 220 3.2 12.9 0.66 0.00 1.85 100 998.9
20260507190842 10 230 6.4 12.9 0.66 0.00 1.85 100 998.9
20260507190358 10 205 0.0 0.0 0.64 0.00 1.83 100 998.9
20260507163335 9 110 1.6 6.4 0.33 0.00 1.17 100 999.9
20260507162826 8 110 0.0 0.0 0.36 0.00 1.14 100 999.9
20260507162343 8 110 0.0 3.2 0.36 0.00 1.12 100 1000.0
20260507161922 8 110 0.0 6.4 0.36 0.00 1.09 100 1000.0
20260507161332 8 109 0.0 9.7 0.33 0.00 1.04 100 999.9
20260507160827 8 110 3.2 11.3 0.33 0.00 1.02 100 1000.9
20260507160402 8 141 0.0 11.3 0.30 0.00 0.99 100 1000.9
20260507155856 8 198 0.0 3.2 0.30 0.00 0.97 100 1000.9
20260507155346 8 198 0.0 11.3 0.28 0.00 0.94 100 1001.0
20260507154901 8 196 1.6 12.9 0.28 0.00 0.91 100 1001.0
20260507154354 8 253 4.8 12.9 0.28 0.00 0.89 100 1001.0
20260507153826 8 232 0.0 12.9 0.25 0.00 0.86 100 1001.0
20260507153337 9 232 4.8 12.9 0.23 0.00 0.84 100 1001.0
20260507152850 9 250 1.6 14.5 0.23 0.00 0.81 100 1001.0
20260507152322 9 251 4.8 17.7 0.20 0.00 0.76 100 1001.3
20260507151902 10 263 9.7 17.7 0.18 0.00 0.74 100 1001.3
20260507151356 10 292 8.0 17.7 0.15 0.00 0.71 100 1001.3
20260507150832 10 241 8.0 24.1 0.13 0.00 0.69 100 1001.4
20260507150344 10 240 9.7 24.1 0.15 0.00 0.69 100 1001.4
20260507145836 10 253 6.4 16.1 0.15 0.00 0.66 100 1001.4
20260507145329 10 189 4.8 14.5 0.15 0.00 0.66 100 1001.8
20260507144841 10 256 6.4 16.1 0.13 0.00 0.64 100 1001.8
20260507144338 10 223 6.4 20.9 0.13 0.00 0.64 100 1001.8
20260507143831 10 270 9.7 20.9 0.10 0.00 0.61 100 1001.6
20260507143328 10 219 9.7 17.7 0.10 0.00 0.61 100 1001.6
20260507142822 10 219 9.7 16.1 0.08 0.00 0.58 100 1001.6
20260507142333 10 294 12.9 22.5 0.05 0.00 0.56 100 1001.6
20260507141850 10 256 12.9 22.5 0.05 0.00 0.56 100 1001.6
20260507141323 10 212 9.7 24.1 0.05 0.00 0.56 100 1001.6
20260507140837 11 212 12.9 24.1 0.05 0.00 0.56 100 1001.6
20260507140330 11 172 9.7 17.7 0.03 0.00 0.53 100 1001.6
20260507135822 11 223 9.7 17.7 0.00 0.00 0.51 100 1001.6
20260507135336 11 271 9.7 27.4 0.00 0.00 0.51 100 1002.0
20260507134917 11 272 11.3 27.4 0.00 0.00 0.51 100 1002.0
20260507134351 11 217 11.3 27.4 0.00 0.00 0.51 100 1002.0
20260507133824 11 247 11.3 27.4 0.00 0.00 0.51 100 1002.1
20260507133337 11 275 6.4 24.1 0.00 0.00 0.51 100 1002.1
20260507132832 11 263 8.0 20.9 0.00 0.00 0.51 100 1002.1
20260507132345 11 258 11.3 22.5 0.00 0.00 0.51 100 1002.2
20260507131859 11 241 12.9 22.5 0.00 0.00 0.51 100 1002.2
20260507131352 11 272 11.3 22.5 0.00 0.00 0.51 100 1002.2
20260507130829 11 206 6.4 22.5 0.00 0.00 0.51 100 1002.5
20260507130338 11 200 6.4 16.1 0.00 0.00 0.51 100 1002.5
20260507125850 11 206 9.7 24.1 0.03 0.00 0.51 100 1002.5
20260507125322 11 265 6.4 24.1 0.03 0.00 0.51 100 1003.0
20260507124922 11 148 11.3 33.8 0.03 0.00 0.51 100 1003.0
20260507124334 11 243 11.3 33.8 0.00 0.00 0.51 100 1003.0
20260507123828 11 246 12.9 24.1 0.00 0.00 0.51 100 1003.3
20260507123322 11 265 12.9 27.4 0.00 0.00 0.51 100 1003.3
20260507122901 11 265 11.3 27.4 0.00 0.00 0.51 100 1003.3
20260507122331 11 256 11.3 24.1 0.00 0.00 0.51 100 1003.3
20260507121850 11 244 8.0 27.4 0.00 0.00 0.51 100 1003.3
20260507121323 11 219 9.7 27.4 0.00 0.00 0.51 100 1003.3
20260507120835 11 226 11.3 25.7 0.00 0.00 0.51 100 1003.1
20260507120330 11 171 11.3 25.7 0.00 0.00 0.51 100 1003.1
20260507115824 11 264 9.7 22.5 0.00 0.00 0.48 100 1003.1
20260507115340 11 270 14.5 22.5 0.00 0.00 0.48 100 1003.3
20260507114834 11 191 11.3 22.5 0.00 0.00 0.48 100 1003.3
20260507114419 11 226 12.9 0.0 0.00 0.00 0.48 100 1003.3
20260507022828 12 256 6.4 24.1 0.00 0.00 0.00 85 1011.3
20260507022342 12 265 9.7 24.1 0.00 0.00 0.00 85 1011.5
20260507021851 12 256 11.3 20.9 0.00 0.00 0.00 85 1011.5
20260507021326 12 240 11.3 20.9 0.00 0.00 0.00 84 1011.5
20260507020839 12 261 12.9 20.9 0.00 0.00 0.00 84 1011.8
20260507020333 12 274 9.7 20.9 0.00 0.00 0.00 84 1011.8
20260507015829 12 209 11.3 20.9 0.00 0.00 0.00 84 1011.8
20260507015342 12 248 12.9 20.9 0.00 0.00 0.00 84 1011.9
20260507014855 12 233 12.9 20.9 0.00 0.00 0.00 84 1011.9
20260507014331 12 206 12.9 22.5 0.00 0.00 0.00 84 1011.8
20260507013826 12 253 11.3 22.5 0.00 0.00 0.00 85 1012.0
20260507013339 12 222 11.3 17.7 0.00 0.00 0.00 85 1012.0
20260507012832 12 251 12.9 22.5 0.00 0.00 0.00 85 1012.0
20260507012324 12 267 12.9 25.7 0.00 0.00 0.00 84 1012.3
20260507011908 12 254 12.9 25.7 0.00 0.00 0.00 85 1012.3
20260507011341 12 248 9.7 27.4 0.00 0.00 0.00 85 1012.3
20260507010855 12 213 12.9 27.4 0.00 0.00 0.00 85 1012.4
20260507010329 12 241 14.5 27.4 0.00 0.00 0.00 84 1012.4
20260507005824 12 270 16.1 27.4 0.00 0.00 0.00 85 1012.4
20260507005338 12 258 12.9 24.1 0.00 0.00 0.00 85 1012.4
20260507004852 12 260 12.9 27.4 0.00 0.00 0.00 85 1012.4
20260507004348 12 220 12.9 27.4 0.00 0.00 0.00 85 1012.4
20260507003842 12 272 14.5 27.4 0.00 0.00 0.00 85 1012.4
20260507003353 12 258 12.9 27.4 0.00 0.00 0.00 85 1012.4
20260507002828 12 251 14.5 27.4 0.00 0.00 0.00 84 1012.4
20260507002341 12 267 16.1 29.0 0.00 0.00 0.00 84 1012.4
20260507001855 12 205 12.9 29.0 0.00 0.00 0.00 84 1012.4
20260507001332 12 248 14.5 32.2 0.00 0.00 0.00 84 1012.4
20260507000826 12 233 16.1 32.2 0.00 0.00 0.00 84 1012.4
20260507000339 12 260 14.5 29.0 0.00 0.00 0.00 84 1012.4
20260506235834 12 239 14.5 29.0 0.00 0.00 0.00 84 1012.4
20260506235348 12 244 11.3 29.0 0.00 0.00 0.00 84 1012.4
20260506234842 12 224 11.3 25.7 0.00 0.00 0.00 84 1012.4
20260506234328 12 263 12.9 27.4 0.00 0.00 0.00 84 1012.4
20260506233822 12 267 12.9 27.4 0.00 0.00 0.00 83 1012.3
20260506233334 12 210 16.1 25.7 0.00 0.00 0.00 83 1012.3
20260506232828 12 246 14.5 29.0 0.00 0.00 0.00 83 1012.3
20260506232323 12 202 14.5 29.0 0.00 0.00 0.00 83 1012.4
20260506231843 12 222 11.3 25.7 0.00 0.00 0.00 83 1012.4
20260506231338 12 263 12.9 25.7 0.00 0.00 0.00 82 1012.4
20260506230850 12 267 11.3 32.2 0.00 0.00 0.00 82 1012.4
20260506230321 12 233 16.1 32.2 0.00 0.00 0.00 82 1012.4
20260506225832 12 232 11.3 32.2 0.00 0.00 0.00 82 1012.4
20260506225342 12 251 16.1 29.0 0.00 0.00 0.00 82 1012.4
20260506224858 12 271 12.9 25.7 0.00 0.00 0.00 82 1012.4
20260506224334 12 196 14.5 35.4 0.00 0.00 0.00 81 1012.4
20260506223825 12 193 11.3 35.4 0.00 0.00 0.00 81 1012.8
20260506223339 12 261 20.9 35.4 0.00 0.00 0.00 81 1012.8
20260506222833 12 236 14.5 35.4 0.00 0.00 0.00 81 1012.8
20260506222330 13 256 16.1 37.0 0.00 0.00 0.00 81 1012.7
20260506221844 13 230 14.5 37.0 0.00 0.00 0.00 80 1012.7
20260506221340 13 203 14.5 29.0 0.00 0.00 0.00 80 1012.7
20260506220834 13 217 14.5 32.2 0.00 0.00 0.00 80 1012.6
20260506220328 13 244 16.1 35.4 0.00 0.00 0.00 80 1012.6
20260506215821 13 271 16.1 35.4 0.00 0.00 0.00 80 1012.6
20260506215335 13 263 17.7 32.2 0.00 0.00 0.00 79 1012.4
20260506214849 13 189 17.7 32.2 0.00 0.00 0.00 79 1012.4
20260506214342 13 246 16.1 32.2 0.00 0.00 0.00 79 1012.4
20260506213856 14 181 19.3 29.0 0.00 0.00 0.00 79 1012.4
20260506213328 14 234 9.7 33.8 0.00 0.00 0.00 79 1012.4
20260506212821 14 216 17.7 33.8 0.00 0.00 0.00 78 1012.4
20260506212402 14 254 12.9 22.5 0.00 0.00 0.00 78 1012.4
20260506211858 15 182 14.5 22.5 0.00 0.00 0.00 79 1012.4
20260506211349 15 237 12.9 22.5 0.00 0.00 0.00 79 1012.4
20260506210822 15 265 14.5 20.9 0.00 0.00 0.00 79 1012.1
20260506210337 15 258 11.3 24.1 0.00 0.00 0.00 79 1012.1
20260506205833 15 258 11.3 24.1 0.00 0.00 0.00 79 1012.1
20260506205326 15 206 11.3 27.4 0.00 0.00 0.00 78 1012.4
20260506204841 15 250 12.9 27.4 0.00 0.00 0.00 78 1012.4
20260506204337 15 232 11.3 27.4 0.00 0.00 0.00 78 1012.4
20260506203850 15 251 11.3 24.1 0.00 0.00 0.00 78 1012.4
20260506203346 15 227 11.3 24.1 0.00 0.00 0.00 78 1012.4